Regional Weather Roundup
Issued by NWS Bismarck, ND

Home | Current Version | Previous Version | Text Only | Print | Product List | Glossary On
Versions: 1 2 3 4 5 6 7 8 9 10 11 12 13 14 15 16 17 18 19 20 21 22 23 24 25 26 27 28 29 30 31 32 33 34 35 36 37 38 39 40 41 42 43 44 45 46 47 48 49 50
000
ASUS43 KBIS 200710
RWRBIS

NWR BROADCAST TEXT
NATIONAL WEATHER SERVICE BISMARCK ND
100 AM CST FRI JAN 20 2017

NOTE: "FAIR" INDICATES FEW OR NO CLOUDS BELOW 12,000 FEET WITH NO
SIGNIFICANT WEATHER AND/OR OBSTRUCTIONS TO VISIBILITY.


CITY           SKY/WX    TMP DP  RH WIND       PRES   REMARKS
WILLISTON      FAIR      11   9  92 S3        29.42F FOG
MINOT          FAIR      20  17  88 SE6       29.40S WCI  12
MINOT AFB      FAIR      15  13  90 S3        29.39S
BISMARCK       FOG       14  12  92 SE3       29.46F VSB 1/4
DICKINSON      FAIR      18  14  84 W9        29.38F WCI   7
GARRISON         N/A     12   9  87 CALM      29.41F
HETTINGER ARPT FAIR      20  15  81 VRB3      29.41F
JAMESTOWN      FOG       33  33 100 S6        29.48F VSB 1/2
CARRINGTON     FOG       28  28 100 S16       29.50F VSB 1   WCI  17
HAZEN            N/A    N/A N/A N/A CALM      29.44F
MANDAN         FAIR      14  12  92 S7        29.44F WCI   4
RUGBY            N/A     16  14  93 S10       29.43F WCI   3
STANLEY        FAIR      21  21 100 CALM      29.41S
TIOGA          FAIR      16  16 100 W5        29.41F WCI   9
WATFORD CITY   FAIR      18  16  93 SW3       29.42S
$$

CITY           SKY/WX    TMP DP  RH WIND       PRES   REMARKS
GRAND FORKS    FOG       35  33  92 S8        29.54F VSB 1
GRAND FORKS AF CLOUDY    33  33  99 S8        29.53F FOG
DEVILS LAKE    CLOUDY    26  25  96 S12       29.49S FOG     WCI  16
FARGO          CLOUDY    48  36  63 S10       29.55F HAZE
CAVALIER         N/A     32  32 100 S13       29.51S
GRAFTON        CLOUDY    34  34 100 S9        29.55S FOG
GWINNER        CLOUDY    36  36 100 SE14      29.53S
ROLLA            N/A    N/A N/A N/A MISG        N/A
$$

CITY           SKY/WX    TMP DP  RH WIND       PRES   REMARKS
ABERDEEN       CLOUDY    34  32  92 SE13      29.51S FOG
MOBRIDGE       FOG       25  21  85 NW3       29.42F VSB 1/4
BUFFALO          N/A     25  17  72 W13       29.34S WCI  14
RAPID CITY     FAIR      25  17  72 NW6       29.40F WCI  18
GLASGOW        FAIR      29  24  82 W7        29.42F
SIDNEY         FAIR      14  12  92 CALM      29.43F
WOLF POINT     FAIR      18  15  88 SW8       29.44S WCI   8
GLENDIVE       FAIR      15  12  88 W8        29.44S WCI   4
MILES CITY     FAIR      19  15  84 S5        29.47R WCI  12
BAKER          FAIR      19  15  84 W3        29.43F
$$

CITY           SKY/WX    TMP DP  RH WIND       PRES   REMARKS
BILLINGS       DRIZZLE   33  30  88 SW10      29.51F
GREAT FALLS    CLOUDY    36  27  69 SW14      29.47F
REGINA         PTCLDY    25  23  93 SE8       29.37S WCI  16
ESTEVAN        CLEAR     18  16  93 SW6       29.39F WCI   9
$$





USA.gov is the U.S. government's official web portal to all federal, state and local government web resources and services.